Back to catalog

BREEZE-M DEB

TANK

AliveHEO
NORAD 40884·DEBRIS·🇷🇺 Russia

Launched Aug 28, 2015 from Baikonur Cosmodrome

Loading…

Next Passes (next 24 hours)

TLE

FreshSource: Space-Track

Epoch: Sep 13, 2026, 21:41 UTC

1 40884U 15042C   26256.90410551  .00000506  00000-0  25485-3 0  9990
2 40884  50.7797 309.8862 5113938  94.3364 323.1090  5.36462558213497

Track BREEZE-M DEB in real time with AllMySat

Download on the App Store